STARLINK-5704 (55486 NORAD) Tracking and Keplerian Element Data

This shows tracking and keplerian element data for the satellite.

Feedback or suggestion? Click here.




ElementValue
Catalog55486
NameSTARLINK-5704
Epoch Orbit130
Epoch Day84.91667824
Epoch Year2023
RAAN84.6447
Inclination42.9984
Eccentricity0.0001315
Argument of Perigee270.7794
Mean Anonmoly161.0721
Mean Motion15.16098205
Decay Rate-0.00873496
L11 55486U 23015AP 23084.91667824 -.00873496 00000+0 -47921-1 0 9991
L22 55486 42.9984 84.6447 0001315 270.7794 161.0721 15.16098205 1304



Live tracking and technical data element details for STARLINK-5704 (NORAD 55486). STARLINK-5704 can be tracked NOW for your location showing map with azimuth and elevation plus other details from your city location.







IsCatalogInMostPopularTable: catalog: 55486, numindb: -1

Insert: records affected: 1


GetName: 55486 STARLINK-5704

Hit Count: inserted at: Tue, 28 Mar 2023 02:39:33 GMT